Location: Calvatone
(45.1167°N, 10.4333°E)
Time: 15:21:32
(UTC+00:00)

Cosmos 2251 Rocket - Pass Details

Date: 28 January 2023
Orbit: 764 x 790 km, 74.0° (Epoch: 31 March)

Event Time Altitude Azimuth Distance (km) Brightness Sun altitude
Rises 16:45:59 0° 169° (S) 3,250 6.9 -5.1°
Reaches altitude 10° 16:48:36 10° 159° (SSE) 2,332 6.0 -5.5°
Maximum altitude 16:53:09 30° 100° (E) 1,396 4.4 -6.3°
Drops below altitude 10° 16:57:44 10° 41° (NE) 2,359 5.5 -7.1°
Enters shadow 17:00:09 - 31° (NNE) 3,210 6.3 -7.5°
